COSMOS 755

导读

COSMOS 755(宇宙755)是苏联于1975年8月14日发射的“宇宙”号系列卫星,该系列是世界上卫星数量最多的多用途卫星家族,以军用卫星为主,同时涵盖科学探测与技术试验任务。作为早期航天活动的产物,它延续了苏联在冷战时期航天探索的技术路线,承担特定空间任务,为后续航天技术发展积累了宝贵数据,现已完成使命成为空间碎片留在近地轨道。

Basic Information
目录编号:
8072
目录名称:
COSMOS 755
国际标识:
1975-074A
轨道中心:
EARTH
卫星名称:
COSMOS 755
卫星全名:
--
卫星状态:
在轨 (已飞行18565 天)
发射日期:
1975-08-14 UTC
国别 :
俄罗斯(独联体) (CIS)
星等 :
--
Orbit Information
数据来源 国际轨道数据 AOE轨道数据
星历时间 2026-06-12T15:01:00+0800
15小时前
查看轨道信息
2026-06-11T04:00:00+0800
2天前
查看轨道信息
半长轴 7362.6km 7362.599km
偏心率 0.0028287 0.0028068
轨道倾角 82.905° 82.904°
近地点辐角 155.896° 159.530°
升交点赤经 88.386° 89.470°
平近点角 317.733° 300.085°
近地点 963.636km 963.796km
远地点 1005.29km 1005.128km
周期 104.787分钟 104.787分钟
每日圈数 13.742192 13.742195
Detailed Information
使用方式:
暂无
2D Orbit Map
3D Orbit Map
Orbit Altitude Analysis Chart
Orbit Inclination Analysis Chart
Orbit Comprehensive Analysis Chart
View Comprehensive Chart